Weather Roundup
Issued by NWS Chicago, IL

Home | Current Version | Previous Version | Graphics & Text | Print | Product List | Glossary On
Versions: 1 2 3 4 5 6 7 8 9 10 11 12 13 14 15 16 17 18 19 20 21 22 23 24 25 26 27 28 29 30 31 32 33 34 35 36 37 38 39 40 41 42 43 44 45 46 47 48 49 50
000
NZUS59 KLOT 301821
HRRLOT

CHICAGO AREA WEATHER ROUNDUP
NATIONAL WEATHER SERVICE CHICAGO/ROMEOVILLE IL
100 PM CDT TUE JUN 30 2015

NOTE: "FAIR" INDICATES FEW OR NO CLOUDS BELOW 12,000 FEET WITH NO
SIGNIFICANT WEATHER AND/OR OBSTRUCTIONS TO VISIBILITY.

* THESE STATIONS ARE NOT UNDER NWS QUALITY CONTROL. THEY ALSO MAY NOT
  REPORT WEATHER SUCH AS PRECIPITATION OR FOG.

ILZ005-006-012>014-019>023-301900-
NORTHEAST ILLINOIS

CITY           SKY/WX    TMP DP  RH WIND       PRES   REMARKS
OHARE          PTSUNNY   74  61  63 NW10      29.81F
6HR MIN TEMP:  63; 6HR MAX TEMP:  74;

MIDWAY         PTSUNNY   78  61  55 N13       29.81S HX  80
6HR MIN TEMP:  66; 6HR MAX TEMP:  79;

AURORA         PTSUNNY   74  62  66 NW8       29.83F
6HR MIN TEMP:  62; 6HR MAX TEMP:  75;

LANSING*       MOSUNNY   76  58  53 W9        29.81F
JOLIET*        PTSUNNY   77  64  64 NW8       29.82F
WAUKEGAN         N/A    N/A N/A N/A MISG      29.82S
6HR MIN TEMP:  61; 6HR MAX TEMP:  71;

DUPAGE AIRPORT PTSUNNY   75  62  64 NW12      29.82F
6HR MIN TEMP:  62; 6HR MAX TEMP:  75;

WHEELING       MOSUNNY   74  60  61 N10       29.83S
6HR MIN TEMP:  64; 6HR MAX TEMP:  75;

KANKAKEE*      MOSUNNY   76  65  69 NW6       29.82F
MORRIS*        SUNNY     76  63  63 NW6       29.81S
LEWIS AIRPORT* PTSUNNY   75  62  63 NW10      29.82F
NORTHERLY IS     N/A     69  61  75 NE7         N/A
$$

WIZ051-052-058>065-066-070>072-301900-
SOUTHEAST WISCONSIN

CITY           SKY/WX    TMP DP  RH WIND       PRES   REMARKS
MILWAUKEE      CLOUDY    66  58  75 NE15      29.82R
6HR MIN TEMP:  63; 6HR MAX TEMP:  74;

KENOSHA*       PTSUNNY   73  60  63 NW13      29.82F
RACINE*        CLOUDY    73  58  59 NW12      29.83S
BURLINGTON     PTSUNNY   70  59  69 NW13G18   29.83F
WAUKESHA       PTSUNNY   70  59  68 NW12      29.84F
WEST BEND      CLOUDY    70  57  64 NW14G21   29.83S
$$

INZ001>003-010>013-019-020-301900-
NORTHWEST INDIANA

CITY           SKY/WX    TMP DP  RH WIND       PRES   REMARKS
GARY*          MOSUNNY  N/A N/A N/A VRB3      29.81F
MICHIGAN CITY* NOT AVBL
RENSSELAER*    NOT AVBL
VALPARAISO     PTSUNNY   76  60  57 VRB7      29.81F
$$

LMZ740>746-301900-
SOUTHERN LAKE MICHIGAN

STATION/POSITION TIME  SKY/WX   TEMP WIND        PRES    VSBY
                                AIR  DIR/SP/G
                 (UTC)          (F)  (DEG/KT/KT) (MB)    (MI)
HARRISON CRIB    1800            66   30/  9/ 11   N/A
BURNHAM HARBOR   1800            69   40/  6/ 12   N/A
CALUMET HARBOR   1700            75  300/  3/  7   N/A
BURNS HARBOR     1700            68   CALM  /  1 1010.5R
MICHIGAN CITY    1800            64  350/ 12/ 14   N/A
$$

ABBREVIATIONS USED IN REMARKS
   TC - TEMPERATURE IN CELSIUS
  WCI - WIND CHILL INDEX
   HX - HEAT INDEX
  VSB - VISIBILITY
$$



USA.gov is the U.S. government's official web portal to all federal, state and local government web resources and services.